STARLINK-36523, 67460

Orbit data source: Space-Track

STARLINK-36523, 67460 is a payload satellite owned by SpaceX/Seattle (US) in LEO that was launched on Wed, 14 Jan 2026 UTC via an FALCON 9 launch vehicle from the Air Force Eastern Test Range (AFETR). Payload-class satellites include a variety of spacecraft equipped with specific instruments for various scientific and technological missions. These include communications satellites like Starlink; space stations such as the ISS; scientific satellites like the Hubble; Earth observation satellites from companies like Planet Labs, Umbra, and HawkEye 360; GPS; miniature CubeSats for education and research; and military/defense satellites.

Loading next visibility...
Identifier
67460, 2026-008R
Orbit
LEO
Country
Flag of USUS
Related business
Manufacturer
SpaceX/Seattle
Mission
Operational spacecraft
Bus & Motor
STARLINK V2MO, Unknown motor
Mass
575 kg wet, ~530 kg dry
Launch date (UTC)
2026-01-14 (2 months ago)
Launch vehicle
FALCON 9
Launch site
Air Force Eastern Test Range (AFETR)
Object type
Payload
Rocket body
Debris
Shape & HBR
Unknown shape, 17.7 m
Radar Cross Section
RCS unknown

Expand to show TLE details & history
Last TLE update: 10 hours ago

TLE from 10 hours ago
0 STARLINK-36523
1 67460U 26008R   26062.83644682  .00036956  00000-0  13448-2 0  9997
2 67460  43.0021 238.5683 0002990 269.2838  90.7671 15.27600446  8674
Epoch: 2026-03-03T20:04Z
TLE epoch observation values (Epoch: 2026-03-03T20:04:29.005Z)
Latitude
-0.00001°
Longitude
135.83764°
Altitude
482.792 km
Speed
7.626 km/s
True Right ascension
15h 54m 16s
True Declination
0° 00' 00"
Sunlit
Object was in daylight at epoch
Visualization orbit readout
Latitude
Unknown
Longitude
Unknown
Altitude
Unknown
Speed
Unknown
Apparent Right ascension
Unknown
Apparent Declination
Unknown
Sunlit
N/A
Visualization observer readout
Local Sidereal Time
10:01:05
Azimuth
Unknown
Elevation
Unknown
Doppler factor
Unknown
Orbital elements
Apogee altitude
486.985 km
Perigee altitude
482.881 km
Semi-major axis
6,863.07 km
Eccentricity
0.0003
Inclination
43.0021°
RAAN
238.5683°
Arg. of periapsis
269.2838°
True anomaly
90.80136°
Mean anomaly
90.7671°
Eccentric anomaly
90.78423°
Mean motion
3.81738 °/min
Orbital period
94.31 mins
BSTAR
0.0013448
Loading maneuver chart data...
Computing Atmospheric mass density...
Loading historical data...
Loading historical data...
Loading historical data...
Loading historical data...
Loading historical data...
Loading historical data...
Loading historical data...

Documentation

Showing up to 5 results
|